Weather History for KCQF - June, 2013

Change the Weather History Date:

Friday, June 28, 2013

  Actual Average (KBFM) Record (KBFM)
Temperature  
Mean Temperature 88 °F -  
Max Temperature 93 °F 85 °F 95 °F (2013)
Min Temperature 84 °F 71 °F -41 °F (1999)
Cooling Degree Days 24    
Growing Degree Days 38 (Base 50)    
Moisture  
Dew Point 79 °F    
Average Humidity 74    
Maximum Humidity 94    
Minimum Humidity 52    
Precipitation  
Precipitation 0.00 in - - ()
Sea Level Pressure  
Sea Level Pressure 29.87 in    
Wind  
Wind Speed 7 mph (WSW)    
Max Wind Speed 13 mph    
Max Gust Speed 18 mph    
Visibility 8 miles    
Events      
Averages and records for this station are not official NWS values.
T = Trace of Precipitation, MM = Missing Value Source: NWS Daily Summary

Daily Weather History Graph

Daily Weather History Graph

Search for Another Location

Airport or City:

Trip Planner

Search our weather history database for the weather conditions in past years. The results will help you decide how hot, cold, wet, or windy it might be!

Date:

Astronomy

Jun. 28, 2013 Rise Set
Actual Time 5:51 AM CDT 7:57 PM CDT
Civil Twilight 5:24 AM CDT 8:25 PM CDT
Nautical Twilight 4:50 AM CDT 8:58 PM CDT
Astronomical Twilight 4:14 AM CDT 9:34 PM CDT
Moon 11:55 PM CDT (6/28) 11:33 AM CDT (6/28)
Length of Visible Light 15h 01m
Length of Day
14h 05m
Waning Gibbous, 66% of the Moon is Illuminated
Jun 28
Waning Gibbous
Jun 29
Last Quarter
Jul 8
New
Jul 15
First Quarter
Jul 22
Full

Hourly Weather History & Observations

Time (CDT) Temp. Heat Index Dew Point Humidity Pressure Visibility Wind Dir Wind Speed Gust Speed Precip Events Conditions
12:15 AM 86.0 °F 99.3 °F 78.8 °F 79% 29.94 in 10.0 mi WSW 5.8 mph - N/A   Clear
12:35 AM 86.0 °F 99.3 °F 78.8 °F 79% 29.93 in 10.0 mi SW 5.8 mph - N/A   Clear
12:55 AM 84.2 °F 96.1 °F 78.8 °F 84% 29.93 in 7.0 mi SW 3.5 mph - N/A   Clear
1:15 AM 86.0 °F 99.3 °F 78.8 °F 79% 29.94 in 7.0 mi WSW 3.5 mph - N/A   Clear
1:35 AM 84.2 °F 98.3 °F 80.6 °F 89% 29.94 in 7.0 mi WSW 4.6 mph - N/A   Clear
1:55 AM 84.2 °F 98.3 °F 80.6 °F 89% 29.93 in 10.0 mi SW 4.6 mph - N/A   Clear
2:15 AM 84.2 °F 98.3 °F 80.6 °F 89% 29.93 in 7.0 mi WSW 5.8 mph - N/A   Clear
2:35 AM 86.0 °F 101.9 °F 80.6 °F 84% 29.92 in 5.0 mi WSW 5.8 mph - N/A   Clear
2:55 AM 86.0 °F 101.9 °F 80.6 °F 84% 29.90 in 7.0 mi SW 6.9 mph - N/A   Clear
3:15 AM 86.0 °F 101.9 °F 80.6 °F 84% 29.90 in 7.0 mi SW 6.9 mph - N/A   Clear
3:35 AM 86.0 °F 101.9 °F 80.6 °F 84% 29.90 in 7.0 mi WSW 5.8 mph - N/A   Clear
3:55 AM 86.0 °F 101.9 °F 80.6 °F 84% 29.90 in 7.0 mi WSW 9.2 mph - N/A   Clear
4:15 AM 86.0 °F 101.9 °F 80.6 °F 84% 29.89 in 10.0 mi WSW 9.2 mph - N/A   Clear
4:35 AM 86.0 °F 101.9 °F 80.6 °F 84% 29.89 in 7.0 mi WSW 6.9 mph - N/A   Clear
4:55 AM 86.0 °F 101.9 °F 80.6 °F 84% 29.90 in 7.0 mi WSW 4.6 mph - N/A   Clear
5:15 AM 84.2 °F 98.3 °F 80.6 °F 89% 29.91 in 7.0 mi West 5.8 mph - N/A   Clear
5:35 AM 84.2 °F 98.3 °F 80.6 °F 89% 29.92 in 5.0 mi West 4.6 mph - N/A   Scattered Clouds
5:55 AM 84.2 °F 98.3 °F 80.6 °F 89% 29.92 in 7.0 mi West 4.6 mph - N/A   Scattered Clouds
6:15 AM 84.2 °F 98.3 °F 80.6 °F 89% 29.92 in 7.0 mi West 4.6 mph - N/A   Scattered Clouds
6:35 AM 84.2 °F 98.3 °F 80.6 °F 89% 29.91 in 7.0 mi West 5.8 mph - N/A   Scattered Clouds
6:55 AM 84.2 °F 100.6 °F 82.4 °F 94% 29.92 in 7.0 mi West 3.5 mph - N/A   Mostly Cloudy
7:55 AM 86.0 °F 99.3 °F 78.8 °F 79% 29.94 in 7.0 mi WNW 8.1 mph - N/A   Scattered Clouds
8:15 AM 86.0 °F 99.3 °F 78.8 °F 79% 29.94 in 7.0 mi WNW 4.6 mph - N/A   Clear
8:35 AM 86.0 °F 99.3 °F 78.8 °F 79% 29.94 in 7.0 mi West 6.9 mph - N/A   Clear
8:55 AM 87.8 °F 102.5 °F 78.8 °F 75% 29.94 in 7.0 mi WNW 5.8 mph - N/A   Clear
9:15 AM 87.8 °F 102.5 °F 78.8 °F 75% 29.94 in 10.0 mi West 5.8 mph - N/A   Clear
9:35 AM 87.8 °F 99.7 °F 77.0 °F 70% 29.93 in 7.0 mi WNW 6.9 mph - N/A   Clear
9:55 AM 87.8 °F 99.7 °F 77.0 °F 70% 29.93 in 10.0 mi WNW 9.2 mph - N/A   Clear
10:15 AM 89.6 °F 102.2 °F 77.0 °F 66% 29.92 in 7.0 mi WNW 5.8 mph - N/A   Clear
10:35 AM 89.6 °F 102.2 °F 77.0 °F 66% 29.92 in 7.0 mi NW 6.9 mph - N/A   Clear
10:55 AM 89.6 °F 99.8 °F 75.2 °F 62% 29.92 in 7.0 mi WSW 5.8 mph - N/A   Clear
11:15 AM 91.4 °F 105.1 °F 77.0 °F 63% 29.93 in 7.0 mi WNW 6.9 mph - N/A   Clear
11:35 AM 91.4 °F 105.1 °F 77.0 °F 63% 29.92 in 10.0 mi West 5.8 mph - N/A   Clear
11:55 AM 91.4 °F 102.5 °F 75.2 °F 59% 29.92 in 10.0 mi WNW 5.8 mph - N/A   Clear
12:15 PM 91.4 °F 100.1 °F 73.4 °F 55% 29.91 in 7.0 mi WSW 4.6 mph - N/A   Scattered Clouds
12:35 PM 91.4 °F 102.5 °F 75.2 °F 59% 29.90 in 10.0 mi West 4.6 mph - N/A   Clear
12:55 PM 91.4 °F 100.1 °F 73.4 °F 55% 29.89 in 7.0 mi West 5.8 mph - N/A   Clear
1:15 PM 91.4 °F 100.1 °F 73.4 °F 55% 29.89 in 7.0 mi WSW 6.9 mph - N/A   Clear
1:35 PM 91.4 °F 100.1 °F 73.4 °F 55% 29.87 in 10.0 mi SW 4.6 mph - N/A   Clear
1:55 PM 93.2 °F 102.4 °F 73.4 °F 52% 29.86 in 7.0 mi West 4.6 mph - N/A   Clear
2:15 PM 91.4 °F 105.1 °F 77.0 °F 63% 29.86 in 10.0 mi SSW 5.8 mph - N/A   Clear
2:35 PM 91.4 °F 105.1 °F 77.0 °F 63% 29.85 in 7.0 mi SSW 10.4 mph - N/A   Clear
2:55 PM 91.4 °F 107.2 °F 78.8 °F 66% 29.84 in 7.0 mi SW 12.7 mph 16.1 mph N/A   Clear
3:15 PM 91.4 °F 107.2 °F 78.8 °F 66% 29.83 in 10.0 mi SW 11.5 mph 16.1 mph N/A   Clear
3:35 PM 91.4 °F 107.2 °F 78.8 °F 66% 29.82 in 7.0 mi SW 11.5 mph 16.1 mph N/A   Clear
3:55 PM 91.4 °F 107.2 °F 78.8 °F 66% 29.82 in 10.0 mi SW 12.7 mph 17.3 mph N/A   Clear
4:15 PM 91.4 °F 107.2 °F 78.8 °F 66% 29.82 in 7.0 mi SW 9.2 mph 16.1 mph N/A   Clear
4:35 PM 89.6 °F 104.7 °F 78.8 °F 70% 29.82 in 7.0 mi SW 9.2 mph 17.3 mph N/A   Clear
4:55 PM 89.6 °F 104.7 °F 78.8 °F 70% 29.81 in 7.0 mi SW 10.4 mph 18.4 mph N/A   Clear
5:15 PM 89.6 °F 104.7 °F 78.8 °F 70% 29.81 in 7.0 mi SW 11.5 mph 17.3 mph N/A   Clear
5:35 PM 89.6 °F 104.7 °F 78.8 °F 70% 29.80 in 7.0 mi SW 9.2 mph - N/A   Clear
5:55 PM 89.6 °F 104.7 °F 78.8 °F 70% 29.80 in 7.0 mi SW 8.1 mph - N/A   Clear
6:15 PM 89.6 °F 104.7 °F 78.8 °F 70% 29.80 in 7.0 mi SW 6.9 mph - N/A   Clear
6:35 PM 89.6 °F 102.2 °F 77.0 °F 66% 29.81 in 7.0 mi SW 8.1 mph - N/A   Clear
6:55 PM 89.6 °F 104.7 °F 78.8 °F 70% 29.80 in 7.0 mi SW 6.9 mph - N/A   Clear
7:15 PM 87.8 °F 99.7 °F 77.0 °F 70% 29.79 in 7.0 mi SW 6.9 mph - N/A   Clear
7:35 PM 87.8 °F 102.5 °F 78.8 °F 75% 29.79 in 10.0 mi SSW 6.9 mph - N/A   Clear
7:55 PM 87.8 °F 102.5 °F 78.8 °F 75% 29.78 in 7.0 mi SSW 6.9 mph - N/A   Clear
8:15 PM 87.8 °F 102.5 °F 78.8 °F 75% 29.78 in 7.0 mi SW 6.9 mph - N/A   Clear
8:35 PM 87.8 °F 102.5 °F 78.8 °F 75% 29.78 in 10.0 mi SW 8.1 mph - N/A   Clear
8:55 PM 87.8 °F 102.5 °F 78.8 °F 75% 29.79 in 7.0 mi SW 9.2 mph 17.3 mph N/A   Clear
9:15 PM 86.0 °F 99.3 °F 78.8 °F 79% 29.79 in 7.0 mi SW 8.1 mph 16.1 mph N/A   Clear
9:35 PM 86.0 °F 99.3 °F 78.8 °F 79% 29.80 in 10.0 mi SW 11.5 mph 17.3 mph N/A   Clear
9:55 PM 87.8 °F 102.5 °F 78.8 °F 75% 29.81 in 7.0 mi SW 10.4 mph 18.4 mph N/A   Clear
10:15 PM 87.8 °F 102.5 °F 78.8 °F 75% 29.82 in 7.0 mi SW 9.2 mph - N/A   Clear
10:35 PM 87.8 °F 102.5 °F 78.8 °F 75% 29.81 in 5.0 mi SW 10.4 mph - N/A   Haze
10:55 PM 86.0 °F 101.9 °F 80.6 °F 84% 29.81 in 7.0 mi WSW 5.8 mph 9.2 mph N/A   Clear
11:15 PM 86.0 °F 101.9 °F 80.6 °F 84% 29.80 in 7.0 mi WSW 10.4 mph 16.1 mph N/A   Clear
11:35 PM 86.0 °F 101.9 °F 80.6 °F 84% 29.80 in 7.0 mi WSW 8.1 mph - N/A   Clear
11:55 PM 86.0 °F 101.9 °F 80.6 °F 84% 29.80 in 7.0 mi WSW 8.1 mph - N/A   Scattered Clouds